www.pogodaiklimat.ru

Погода и климат >> Архив погоды >> Россия >> Тюменская область >> Тюмень


АРХИВ ПОГОДЫ в Тюмени

Время (UTC), дата Ветер
(напр.,м/с)
 
Видим.   Явления Облачность Т
(С)
Тd
(С)
f
(%)
Тe
(С)
Тes
(С)
Комфортность P
(гПа)
Po
(гПа)
Тmin
(С)
Tmax
(С)
R
(мм)
R24
(мм)
S
(см)
18 15.03 З 6-11
{13}
4000 м слаб. снег 10/8 300 м
[St As op]
-6.9 -10.0 79 -15 -15 прохладно 1007.5 994.6
21 15.03 З 5
{11}
4000 м слаб. снег {метель} 10/9 600 м
[St As op]
-6.7 -8.8 85 -14 -14 по сезону 1009.0 996.1
00 16.03 З 5-11
{12}
4000 м слаб. снег {метель} 10/9 600 м
[Sc As op]
-6.2 -8.9 81 -13 -13 по сезону 1011.0 998.1
03 16.03 З 5
{11}
4000 м слаб. ливневой снег 10/10 600 м
[Cb cap]
-6.2 -10.6 71 -13 -13 по сезону 1012.7 999.7 -7.0 0.4 50
06 16.03 З 5
{13}
10 км позёмок {ливн. осадки, снег} 6/6 600 м
[Cu hum]
-4.1 -11.7 55 -11 -9 по сезону 1014.6 1001.7
09 16.03 З 5-11
{13}
10 км позёмок 1/1 1000 м
[Cu hum]
-1.1 -12.5 42 -7 -4 по сезону 1015.6 1002.8
12 16.03 З 5
{13}
10 км {метель} 1/0
[Ci fib]
0.0 -14.7 32 -5 -5 по сезону 1017.2 1004.4
15 16.03 З 3
{11}
10 км 8/0
[Cs]
-1.6 -16.7 31 -6 -6 по сезону 1019.5 1006.7 +0.3 0.0
18 16.03 З 2 10 км ясно -6.2 -17.6 40 -10 -10 по сезону 1021.7 1008.6
21 16.03 ЮЗ 1 10 км ясно -8.4 -15.3 57 -10 -10 по сезону 1023.0 1009.8
00 17.03 З 1 10 км ясно -11.6 -15.5 73 -14 -14 по сезону 1024.9 1011.5
03 17.03 штиль 0 10 км ясно -12.1 -15.1 78 -12 -11 по сезону 1026.9 1013.4 -14.7 49
06 17.03 СЗ 2 10 км 1/0
[Ci fib]
-3.2 -14.6 41 -6 -1 по сезону 1028.3 1015.2
09 17.03 С 2 10 км 3/0
[Ci fib]
+0.4 -14.4 32 -2 +3 по сезону 1028.6 1015.7
12 17.03 штиль 0 10 км 3/0
[Ci fib]
+1.5 -16.3 25 +2 +3 тепло 1028.8 1016.0
15 17.03 штиль 0 10 км 1/0
[Ci fib]
-5.6 -12.5 58 -6 -6 по сезону 1030.2 1017.0 +1.6
18 17.03 штиль 0 10 км ясно -9.0 -11.5 82 -10 -10 по сезону 1031.3 1017.9
21 17.03 ЮВ 1 10 км ясно -10.0 -12.7 81 -12 -12 по сезону 1031.4 1018.0
00 18.03 ЮВ 1 10 км ясно -10.1 -14.0 73 -12 -12 по сезону 1032.2 1018.7
03 18.03 ЮВ 1 10 км 10/0
[Ci fib]
-7.9 -12.3 71 -10 -9 по сезону 1033.0 1019.7 -10.9 48
06 18.03 Ю 1 10 км 8/0
[Ac trans Ci fib]
+0.5 -12.8 36 -0 +4 тепло 1032.6 1019.7
09 18.03 Ю 3 10 км 8/0
[Cc]
+4.1 -13.0 28 +1 +5 тепло 1032.3 1019.5
12 18.03 Ю 2 10 км 10/0
[Cs]
+3.1 -14.2 27 +1 +2 тепло 1032.1 1019.4
15 18.03 Ю 2 10 км 10/0
[Ac trans Cc]
-0.9 -9.6 52 -4 -4 по сезону 1032.3 1019.3 +4.5
18 18.03 Ю 2 10 км 10/0
[Cs]
-2.3 -8.7 61 -6 -6 по сезону 1032.0 1019.0
21 18.03 Ю 1 10 км 10/0
[Cs]
-3.4 -8.5 68 -5 -5 тепло 1032.5 1019.4
00 19.03 Ю 1 10 км 10/0
[Cs]
-4.7 -8.6 74 -7 -7 по сезону 1032.2 1019.1
03 19.03 Ю 1 10 км 10/0
[]
-5.2 -8.7 76 -7 -7 по сезону 1032.4 1019.2 -5.4 47
06 19.03 В 1 10 км 10/0
[Cs]
-0.4 -8.3 55 -2 +3 тепло 1032.3 1019.4
09 19.03 ЮВ 2 10 км 10/0
[Cs]
+1.4 -10.8 40 -1 +4 по сезону 1031.6 1018.7
12 19.03 ЮВ 2 10 км 10/0
[Cs]
+2.2 -11.7 35 0 +1 по сезону 1031.1 1018.2
15 19.03 Ю 1 10 км 1/0
[Ac lent]
-2.5 -8.6 63 -4 -4 по сезону 1031.3 1018.2 +2.4
18 19.03 Ю 2 10 км 8/0
[Cc]
-5.3 -9.7 71 -9 -9 по сезону 1031.0 1017.8
21 19.03 ЮВ 2 10 км 4/0
[Cc]
-7.3 -10.2 80 -12 -12 по сезону 1030.8 1017.5
00 20.03 ЮВ 1 10 км 3/0
[Cc]
-11.0 -12.2 91 -13 -13 по сезону 1030.1 1016.6
03 20.03 Ю 2 10 км ясно -9.2 -10.5 90 -14 -13 по сезону 1029.3 1016.0 -11.2 47
06 20.03 Ю 3 10 км ясно -2.0 -10.3 53 -6 -2 по сезону 1028.1 1015.1
09 20.03 Ю 3 10 км ясно +3.1 -12.4 31 0 +5 тепло 1025.9 1013.2
12 20.03 Ю 2 10 км ясно +3.6 -11.0 33 +2 +3 тепло 1024.5 1011.8
15 20.03 Ю 2 10 км 1/0
[Ci fib]
-1.5 -10.3 51 -5 -5 по сезону 1023.8 1010.9 +3.9
18 20.03 Ю 2 10 км ясно -3.7 -9.6 64 -7 -7 по сезону 1022.8 1009.8
21 20.03 Ю 3 10 км 3/0
[Ci fib]
-5.1 -9.2 73 -10 -10 по сезону 1021.6 1008.6
00 21.03 Ю 1 10 км ясно -7.8 -10.1 84 -10 -10 по сезону 1020.5 1007.3
03 21.03 Ю 2 10 км 10/0
[Ci fib]
-6.5 -9.0 82 -11 -10 по сезону 1019.5 1006.4 -8.3 47
06 21.03 ЮЗ 2 10 км 10/0
[Cs]
-0.2 -8.1 55 -3 +2 по сезону 1018.3 1005.6
09 21.03 ЮВ 2 10 км 10/0
[Cs]
+5.6 -8.1 37 +4 +9 тепло 1017.1 1004.6
12 21.03 Ю 3 10 км 9/0
[Ci sp]
+6.2 -8.0 35 +4 +5 тепло 1015.9 1003.4
15 21.03 Ю 1 10 км 10/0
[Ac As Ci]
+1.4 -6.9 54 0 0 тепло 1016.5 1003.8 +6.4
18 21.03 СЗ 1 10 км 10/0
[Ac trans Cc]
+2.6 -0.9 78 +1 +1 тепло 1017.6 1005.0
21 21.03 штиль 0 10 км 10/0
[Ac trans Ci]
-2.3 -3.2 94 -4 -4 тепло 1017.8 1004.9
00 22.03 штиль 0 10 км 10/10 840 м
[Sc]
-3.6 -3.9 98 -5 -5 по сезону 1018.1 1005.2
03 22.03 штиль 0 4000 м дымка 10/10 720 м
[Sc]
-0.7 -1.3 96 -2 -2 тепло 1018.3 1005.5 -4.2 44
06 22.03 ЮВ 1 10 км 10/10 600 м
[Sc]
+2.2 -1.0 79 +1 +1 тепло 1018.5 1005.8
09 22.03 В 1 10 км 10/10 600 м
[Sc]
+4.6 -1.4 65 +4 +4 тепло 1018.0 1005.4
12 22.03 В 2 10 км 4/0
[Ac trans Ci fib]
+4.3 -2.4 62 +2 +3 по сезону 1016.8 1004.3

 

Местоположение метеостанции Тюмень (Тюменская область, Россия): широта 57.12 долгота 65.43 высота над уровнем моря 102 м.

В архиве по умолчанию представлена погода в Тюмени за последнюю неделю. Архивные данные за месяц целиком и за предыдущие месяцы, начиная с января 2011 года, Вы можете получить, выбрав интересующий диапазон дат из раскрывающегося списка и нажав кнопку "Ввод!".


*Определитесь, кто Вы:
робот инопланетянин человек

Внимание! Время в таблицах - всемирное. Для получения местного времени необходимо прибавить поправку, которая равна 5 ч.

Смотрите также архив погоды в соседних городах и на ближайших метеорологических станциях:

Погода в Тугулыме (Свердловская область, Россия) (46 км)
Погода в Исетском (Тюменская область, Россия) (73 км)
Погода в Ялуторовске (Тюменская область, Россия) (74 км)
Погода в Нижней Тавде (Тюменская область, Россия) (76 км)
Погода в Шатрово (Курганская область, Россия) (82 км)
Погода в Ярково (Тюменская область, Россия) (105 км)
Погода в Тавде (Свердловская область, Россия) (106 км)
Погода в Бутке (Свердловская область, Россия) (110 км)
Погода в Памятном (Курганская область, Россия) (123 км)
Погода в Туринске (Свердловская область, Россия) (147 км)

Пояснения к столбцам:

Ветер - указаны скорость ветра в м/с - средняя за 10 мин, порывы в срок и между сроками (в фигурных скобках) и направление, откуда дует ветер: С - северный, СВ - северо-восточный, В - восточный, ЮВ - юго-восточный, Ю - южный, ЮЗ - юго-западный, З - западный, СЗ - северо-западный.
Видимость - горизонтальная дальность видимости в метрах или километрах. При видимости от 1 до 10 км при отсутствии осадков обычно наблюдается дымка, при ухудшении видимости до 1 км и менее - туман. В сухую погоду видимость может ухудшаться дымом, пылью или мглою.
Явления - указаны атмосферные явления, наблюдавшиеся в срок или в последний час перед сроком; фигурными скобками обозначены явления, наблюдавшиеся между сроками (за 1-3 часа до срока); квадратными скобками обозначены град или гололедные отложения с указанием их диаметра в мм.
Облачность - указаны через наклонную черту общая и нижняя облачность в баллах и высота нижней границы облаков в метрах; квадратными скобками обозначены формы облаков: Ci - перистые, Cs - перисто-слоистые, Cc - перисто-кучевые, Ac - высококучевые, As - высокослоистые, Sc - слоисто-кучевые, Ns - слоисто-дождевые, Cu - кучевые, Cb - кучево-дождевые. Подробнее классификацию облаков см. в Атласе облаков (PDF).
T - Температура воздуха - температура, измеренная на высоте 2 м над землей.
Td - Температура точки росы - температура, при понижении до которой содержащийся в воздухе водяной пар достигнет насыщения.
f - Относительная влажность воздуха - влажноcть воздуха, измеренная на высоте 2 м над землей.
Te - Эффективная температура - температура, которую ощущает одетый по сезону человек в тени. Характеристика душности погоды. При расчете учитывается влияние влажности воздуха и скорости ветра на теплоощущения человека.
Tes - Эффективная температура на солнце - температура, которую ощущает человек, с поправкой на солнечный нагрев. Характеристика знойности погоды. Зависит от высоты солнца над горизонтом, облачности и скорости ветра. Ночью, в пасмурную погоду, а также при ветре 12 м/с и более поправка равна нулю.
P - Атмосферное давление - приведенное к уровню моря атмосферное давление.
Po - Атмосферное давление - измеренное на уровне метеостанции атмосферное давление.
Tmin - Минимальная температура - минимум температуры воздуха на высоте 2 м над землей.
Tmax - Максимальная температура - максимум температуры воздуха на высоте 2 м над землей.
R - Количество осадков - Количество выпавших осадков за период времени, мм. При наведении курсора мыши на число - период времени, за который выпало указанное количество осадков.
R24 - Количество осадков - Количество выпавших осадков за 24 часа, мм.
S - Снежный покров - Высота снежного покрова, см. При наведении курсора мыши на число - состояние снежного покрова и степень покрытия местности в баллах.